Time,TemperatureF,DewpointF,PressureIn,WindDirection,WindDirectionDegrees,WindSpeedMPH,WindSpeedGustMPH,Humidity,HourlyPrecipIn,Conditions,Clouds,dailyrainin,SoftwareType,DateUTC
2013-09-11 00:13:00,78.0,67.0,29.96,SSE,157,0.0,-999.0,69,-99.99,,,-99.99,,2013-09-11 05:13:00,
2013-09-11 00:23:00,78.0,67.0,29.95,SSE,157,0.0,-999.0,70,-99.99,,,-99.99,,2013-09-11 05:23:00,
2013-09-11 00:53:00,79.0,67.0,29.95,SSW,211,0.0,-999.0,67,-99.99,,,-99.99,,2013-09-11 05:53:00,
2013-09-11 01:12:00,79.0,67.0,29.95,SW,225,1.0,-999.0,66,-99.99,,,-99.99,,2013-09-11 06:12:00,
2013-09-11 01:22:00,79.0,67.0,29.95,SW,217,1.0,-999.0,66,-99.99,,,-99.99,,2013-09-11 06:22:00,
2013-09-11 01:42:00,79.0,67.0,29.95,SW,221,1.0,-999.0,66,-99.99,,,-99.99,,2013-09-11 06:42:00,
2013-09-11 01:52:00,79.0,67.0,29.95,WSW,239,1.0,-999.0,66,-99.99,,,-99.99,,2013-09-11 06:52:00,
2013-09-11 02:12:00,79.0,67.0,29.95,WSW,248,2.0,-999.0,67,-99.99,,,-99.99,,2013-09-11 07:12:00,
2013-09-11 02:23:00,79.0,67.0,29.95,SW,235,2.0,-999.0,67,-99.99,,,-99.99,,2013-09-11 07:23:00,
2013-09-11 02:42:00,78.0,67.0,29.95,SW,227,1.0,-999.0,68,-99.99,,,-99.99,,2013-09-11 07:42:00,
2013-09-11 02:52:00,78.0,67.0,29.95,SSW,211,1.0,-999.0,69,-99.99,,,-99.99,,2013-09-11 07:52:00,
2013-09-11 03:11:00,77.0,66.0,29.95,SW,225,0.0,-999.0,70,-99.99,,,-99.99,,2013-09-11 08:11:00,
2013-09-11 03:22:00,77.0,66.0,29.95,West,275,0.0,-999.0,70,-99.99,,,-99.99,,2013-09-11 08:22:00,
2013-09-11 03:42:00,77.0,66.0,29.95,WSW,255,0.0,-999.0,70,-99.99,,,-99.99,,2013-09-11 08:42:00,
2013-09-11 03:52:00,77.0,66.0,29.96,SW,231,1.0,-999.0,70,-99.99,,,-99.99,,2013-09-11 08:52:00,
2013-09-11 04:12:00,76.0,65.0,29.96,WSW,252,1.0,-999.0,70,-99.99,,,-99.99,,2013-09-11 09:12:00,
2013-09-11 04:21:00,76.0,66.0,29.96,WSW,250,0.0,-999.0,71,-99.99,,,-99.99,,2013-09-11 09:21:00,
2013-09-11 04:43:00,75.0,66.0,29.96,WSW,240,0.0,-999.0,73,-99.99,,,-99.99,,2013-09-11 09:43:00,
2013-09-11 04:53:00,75.0,66.0,29.95,SW,230,0.0,-999.0,73,-99.99,,,-99.99,,2013-09-11 09:53:00,
2013-09-11 05:13:00,75.0,66.0,29.95,SW,236,0.0,-999.0,73,-99.99,,,-99.99,,2013-09-11 10:13:00,
2013-09-11 05:23:00,74.0,65.0,29.96,SW,215,0.0,-999.0,74,-99.99,,,-99.99,,2013-09-11 10:23:00,
2013-09-11 05:42:00,73.0,65.0,29.96,SW,215,0.0,-999.0,76,-99.99,,,-99.99,,2013-09-11 10:42:00,
2013-09-11 05:53:00,73.0,65.0,29.96,SW,215,0.0,-999.0,76,-99.99,,,-99.99,,2013-09-11 10:53:00,
2013-09-11 06:12:00,73.0,65.0,29.96,WSW,253,0.0,-999.0,76,-99.99,,,-99.99,,2013-09-11 11:12:00,
2013-09-11 06:21:00,73.0,65.0,29.97,WSW,245,0.0,-999.0,76,-99.99,,,-99.99,,2013-09-11 11:21:00,
2013-09-11 06:52:00,73.0,65.0,29.98,WSW,237,0.0,-999.0,76,-99.99,,,-99.99,,2013-09-11 11:52:00,
2013-09-11 07:11:00,73.0,65.0,29.98,WSW,239,0.0,-999.0,77,-99.99,,,-99.99,,2013-09-11 12:11:00,
2013-09-11 07:21:00,73.0,65.0,29.99,WSW,250,0.0,-999.0,77,-99.99,,,-99.99,,2013-09-11 12:21:00,
2013-09-11 07:52:00,74.0,66.0,30.00,WSW,252,1.0,-999.0,75,-99.99,,,-99.99,,2013-09-11 12:52:00,
2013-09-11 08:12:00,74.0,66.0,30.00,WSW,250,0.0,-999.0,76,-99.99,,,-99.99,,2013-09-11 13:12:00,
2013-09-11 08:22:00,75.0,67.0,29.99,West,277,1.0,-999.0,76,-99.99,,,-99.99,,2013-09-11 13:22:00,
2013-09-11 08:42:00,75.0,68.0,29.99,WSW,253,0.0,-999.0,79,-99.99,,,-99.99,,2013-09-11 13:42:00,
2013-09-11 08:52:00,75.0,69.0,29.99,WSW,248,0.0,-999.0,81,-99.99,,,-99.99,,2013-09-11 13:52:00,
2013-09-11 09:11:00,77.0,69.0,29.99,West,269,0.0,-999.0,76,-99.99,,,-99.99,,2013-09-11 14:11:00,
2013-09-11 09:22:00,78.0,69.0,30.00,West,269,1.0,-999.0,75,-99.99,,,-99.99,,2013-09-11 14:22:00,
2013-09-11 09:42:00,79.0,68.0,30.00,WSW,248,2.0,-999.0,70,-99.99,,,-99.99,,2013-09-11 14:42:00,
2013-09-11 09:52:00,80.0,69.0,30.00,WNW,286,1.0,-999.0,69,-99.99,,,-99.99,,2013-09-11 14:52:00,
2013-09-11 10:11:00,81.0,69.0,30.00,WSW,244,1.0,-999.0,66,-99.99,,,-99.99,,2013-09-11 15:11:00,
2013-09-11 10:22:00,82.0,69.0,29.99,WNW,284,1.0,-999.0,66,-99.99,,,-99.99,,2013-09-11 15:22:00,
2013-09-11 10:43:00,83.0,70.0,29.99,South,187,0.0,-999.0,64,-99.99,,,-99.99,,2013-09-11 15:43:00,
2013-09-11 10:54:00,84.0,70.0,29.99,SW,225,1.0,-999.0,63,-99.99,,,-99.99,,2013-09-11 15:54:00,
2013-09-11 11:13:00,85.0,70.0,29.99,WSW,248,1.0,-999.0,61,-99.99,,,-99.99,,2013-09-11 16:13:00,
2013-09-11 11:23:00,85.0,70.0,29.99,SW,218,1.0,-999.0,62,-99.99,,,-99.99,,2013-09-11 16:23:00,
2013-09-11 11:53:00,86.0,71.0,29.98,WSW,248,1.0,-999.0,61,-99.99,,,-99.99,,2013-09-11 16:53:00,
2013-09-11 12:12:00,87.0,72.0,29.98,South,189,2.0,-999.0,61,-99.99,,,-99.99,,2013-09-11 17:12:00,
2013-09-11 12:23:00,87.0,70.0,29.98,SW,233,2.0,-999.0,58,-99.99,,,-99.99,,2013-09-11 17:23:00,
2013-09-11 12:52:00,89.0,70.0,29.98,West,281,3.0,-999.0,54,-99.99,,,-99.99,,2013-09-11 17:52:00,
2013-09-11 13:12:00,89.0,69.0,29.98,SW,215,3.0,-999.0,52,-99.99,,,-99.99,,2013-09-11 18:12:00,
2013-09-11 13:22:00,90.0,71.0,29.97,SW,221,3.0,-999.0,53,-99.99,,,-99.99,,2013-09-11 18:22:00,
2013-09-11 13:52:00,89.0,70.0,29.97,West,263,3.0,-999.0,53,-99.99,,,-99.99,,2013-09-11 18:52:00,
2013-09-11 14:11:00,89.0,70.0,29.97,West,261,3.0,-999.0,54,-99.99,,,-99.99,,2013-09-11 19:11:00,
2013-09-11 14:22:00,88.0,69.0,29.96,WSW,246,3.0,-999.0,53,-99.99,,,-99.99,,2013-09-11 19:22:00,
2013-09-11 14:53:00,88.0,70.0,29.96,West,272,2.0,-999.0,56,-99.99,,,-99.99,,2013-09-11 19:53:00,
2013-09-11 15:12:00,86.0,69.0,29.96,WNW,285,2.0,-999.0,58,-99.99,,,-99.99,,2013-09-11 20:12:00,
2013-09-11 15:22:00,85.0,69.0,29.97,WNW,302,2.0,-999.0,59,-99.99,,,-99.99,,2013-09-11 20:22:00,
2013-09-11 15:42:00,84.0,70.0,29.97,West,264,2.0,-999.0,63,-99.99,,,-99.99,,2013-09-11 20:42:00,
2013-09-11 15:52:00,83.0,70.0,29.97,West,267,2.0,-999.0,64,-99.99,,,-99.99,,2013-09-11 20:52:00,
2013-09-11 16:12:00,84.0,70.0,29.97,West,276,2.0,-999.0,64,-99.99,,,-99.99,,2013-09-11 21:12:00,
2013-09-11 16:22:00,83.0,70.0,29.97,WNW,286,2.0,-999.0,64,-99.99,,,-99.99,,2013-09-11 21:22:00,
2013-09-11 16:44:00,82.0,69.0,29.97,West,276,1.0,-999.0,66,-99.99,,,-99.99,,2013-09-11 21:44:00,
2013-09-11 16:54:00,81.0,70.0,29.97,West,271,1.0,-999.0,69,-99.99,,,-99.99,,2013-09-11 21:54:00,
2013-09-11 17:13:00,80.0,70.0,29.97,West,279,1.0,-999.0,72,-99.99,,,-99.99,,2013-09-11 22:13:00,
2013-09-11 17:24:00,79.0,71.0,29.97,West,268,1.0,-999.0,76,-99.99,,,-99.99,,2013-09-11 22:24:00,
2013-09-11 17:54:00,77.0,70.0,29.97,WNW,291,0.0,-999.0,79,-99.99,,,-99.99,,2013-09-11 22:54:00,
2013-09-11 18:12:00,77.0,70.0,29.97,WNW,282,1.0,-999.0,78,-99.99,,,-99.99,,2013-09-11 23:12:00,
2013-09-11 18:22:00,77.0,70.0,29.96,West,271,1.0,-999.0,78,-99.99,,,-99.99,,2013-09-11 23:22:00,
2013-09-11 18:53:00,76.0,69.0,29.96,West,278,1.0,-999.0,78,-99.99,,,-99.99,,2013-09-11 23:53:00,
2013-09-11 19:11:00,76.0,69.0,29.96,SW,219,1.0,-999.0,79,-99.99,,,-99.99,,2013-09-12 00:11:00,
2013-09-11 19:21:00,76.0,69.0,29.96,WSW,254,0.0,-999.0,80,-99.99,,,-99.99,,2013-09-12 00:21:00,
2013-09-11 19:42:00,75.0,69.0,29.95,WSW,254,0.0,-999.0,81,-99.99,,,-99.99,,2013-09-12 00:42:00,
2013-09-11 19:52:00,75.0,69.0,29.95,WSW,254,0.0,-999.0,83,-99.99,,,-99.99,,2013-09-12 00:52:00,
2013-09-11 20:11:00,74.0,69.0,29.94,WSW,254,0.0,-999.0,84,-99.99,,,-99.99,,2013-09-12 01:11:00,
2013-09-11 20:22:00,74.0,69.0,29.95,West,277,0.0,-999.0,84,-99.99,,,-99.99,,2013-09-12 01:22:00,
2013-09-11 20:42:00,74.0,69.0,29.95,WNW,284,0.0,-999.0,84,-99.99,,,-99.99,,2013-09-12 01:42:00,
2013-09-11 20:52:00,74.0,69.0,29.95,West,281,0.0,-999.0,84,-99.99,,,-99.99,,2013-09-12 01:52:00,
2013-09-11 21:12:00,73.0,69.0,29.96,West,281,0.0,-999.0,86,-99.99,,,-99.99,,2013-09-12 02:12:00,
2013-09-11 21:22:00,73.0,69.0,29.96,West,281,0.0,-999.0,87,-99.99,,,-99.99,,2013-09-12 02:22:00,
2013-09-11 22:11:00,71.0,68.0,29.96,West,281,0.0,-999.0,91,-99.99,,,-99.99,,2013-09-12 03:11:00,
2013-09-11 22:22:00,71.0,68.0,29.96,West,281,0.0,-999.0,91,-99.99,,,-99.99,,2013-09-12 03:22:00,
2013-09-11 22:55:00,72.0,69.0,29.96,West,281,0.0,-999.0,90,-99.99,,,-99.99,,2013-09-12 03:55:00,
2013-09-11 23:14:00,71.0,68.0,29.97,West,281,0.0,-999.0,90,-99.99,,,-99.99,,2013-09-12 04:14:00,
2013-09-11 23:24:00,71.0,68.0,29.97,West,281,0.0,-999.0,91,-99.99,,,-99.99,,2013-09-12 04:24:00,
2013-09-11 23:44:00,71.0,68.0,29.96,West,281,0.0,-999.0,91,-99.99,,,-99.99,,2013-09-12 04:44:00,
2013-09-11 23:54:00,70.0,67.0,29.96,West,281,0.0,-999.0,91,-99.99,,,-99.99,,2013-09-12 04:54:00,